Location: Northam
(31.6525°S, 116.6655°E)
Time: 07:17:51
(UTC+08:00)

N. Korean satellite - Pass Details

Date: 17 May 2021
Orbit: 450 x 500 km, 97.2° (Epoch: 13 June)

Event Time Altitude Azimuth Distance (km) Brightness Sun altitude
Rises 17:53:22 0° 179° (S) 2,628 10.1 -6.7°
Reaches altitude 10° 17:55:34 10° 187° (S) 1,736 9.3 -7.2°
Maximum altitude 17:59:03 38° 255° (WSW) 794 8.2 -7.9°
Drops below altitude 10° 18:02:28 10° 323° (NW) 1,707 10.2 -8.6°
Sets 18:04:37 0° 331° (NNW) 2,577 11.0 -9.0°
